sat.trackr.live / text

‹ back to catalog

STARLINK-35567

NORAD 66472 · 2025-262S

PAYLOAD ACTIVE UNKNOWN

§ Identity

Operator
Country
US
Launch date
2025-11-15
Launch site
AFETR
Launch vehicle
Mass (kg)
RCS (m²)

Purposes: comms

External: N2YO · Heavens-Above · Gunter

§ Orbital elements

Epoch: 2026-09-20T07:21:01.469664Z

Period
94.27 min
Inclination
43.0021°
Eccentricity
0.0001261
Mean motion
15.27571476 rev/d
Perigee alt
482.2 km
Apogee alt
483.9 km
Semi-major
6,861.2 km
B*
3.5724e-4
RAAN
276.8057°
Arg perigee
252.4049°
Mean anomaly
107.6665°
Rev number
4,867

§ Raw data

STARLINK-355671 66472U 25262S   26263.30626701  .00009579  00000+0  35724-3 0  99992 66472  43.0021 276.8057 0001261 252.4049 107.6665 15.27571476 48679

JSON: /api/v1/satellites/66472 · /tle

For live sub-satellite position, see the globe view (requires WebGL).

§ Visibility from observer

Set your observer location to see the next 7 days of passes ≥ 10°. The values pass through the URL so the page stays shareable.

No JS? Fill the form by hand. The geolocation button needs JavaScript.